FENGYUN 1C DEB, 31642

Orbit data source: Space-Track

FENGYUN 1C DEB, 31642 is space debris in SSO originally from a launch on Mon, 10 May 1999 UTC launched from the Taiyaun Space Center, China (TSC). Fengyun 1C debris stems from the Chinese weather satellite Fengyun-1C, which was intentionally destroyed by a Chinese anti-satellite missile in 2007. This event dramatically increased the amount of space debris, with thousands of trackable fragments posing hazards to satellites and human spaceflight. The Fengyun 1C debris cloud has become a focal point in discussions about space sustainability and the need for international regulations to prevent the creation of new debris.

Loading next visibility...
Identifier
31642, 1999-025CAY
Orbit
SSO
Country
Flag of CNCN / PRC
Related business
Manufacturer
Unknown
Mission
Spacecraft
Bus & Motor
Unknown
Mass
Unknown
Launch date (UTC)
1999-05-10 (27 years ago)
Launch vehicle
Unknown
Launch site
Taiyaun Space Center, China (TSC)
Object type
Payload
Rocket body
Debris
Shape & HBR
Unknown shape, 0.1 m
Radar Cross Section
Medium (>0.1 m² and <1 m²)

Expand to show TLE details & history
Last TLE update: 1 day ago

TLE from 1 day ago
0 FENGYUN 1C DEB
1 31642U 99025CAY 26255.97322073  .00000570  00000-0  20357-3 0  9996
2 31642  98.4871 338.2171 0119794 163.0271 197.4976 14.33872701  9155
Epoch: 2026-09-12T23:21Z
TLE epoch observation values (Epoch: 2026-09-12T23:21:26.271Z)
Latitude
0.00007°
Longitude
-4.11692°
Altitude
863.633 km
Speed
7.378 km/s
True Right ascension
22h 32m 52s
True Declination
0° 00' 00"
Sunlit
Object was in full shadow at epoch
Visualization orbit readout
Latitude
Unknown
Longitude
Unknown
Altitude
Unknown
Speed
Unknown
Apparent Right ascension
Unknown
Apparent Declination
Unknown
Sunlit
N/A
Visualization observer readout
Local Sidereal Time
23:32:40
Azimuth
Unknown
Elevation
Unknown
Doppler factor
Unknown
Orbital elements
Apogee altitude
861.646 km
Perigee altitude
690.242 km
Semi-major axis
7,154.081 km
Eccentricity
0.01198
Inclination
98.4871°
RAAN
338.2171°
Arg. of periapsis
163.0271°
True anomaly
197.09068°
Mean anomaly
197.4976°
Eccentric anomaly
197.29356°
Mean motion
3.58684 °/min
Orbital period
100.37 mins
BSTAR
0.00020357
Loading maneuver chart data...
Computing Atmospheric mass density...

Documentation

Showing up to 5 results
|